STARLINK-35571, 66089

Orbit data source: Space-Track

STARLINK-35571, 66089 is a payload satellite owned by SpaceX/Seattle (US) in LEO that was launched on Sun, 19 Oct 2025 UTC via an FALCON 9 launch vehicle from the Air Force Western Test Range (AFWTR). Payload-class satellites include a variety of spacecraft equipped with specific instruments for various scientific and technological missions. These include communications satellites like Starlink; space stations such as the ISS; scientific satellites like the Hubble; Earth observation satellites from companies like Planet Labs, Umbra, and HawkEye 360; GPS; miniature CubeSats for education and research; and military/defense satellites.

Loading next visibility...
Identifier
66089, 2025-236D
Orbit
LEO
Country
Flag of USUS
Related business
Manufacturer
SpaceX/Seattle
Mission
Operational Commercial Communications
Bus & Motor
STARLINK V2MO, Unknown motor
Mass
575 kg wet, ~530 kg dry
Launch date (UTC)
2025-10-19 (6 months ago)
Launch vehicle
FALCON 9
Launch site
Air Force Western Test Range (AFWTR)
Object type
Payload
Rocket body
Debris
Shape & HBR
Box + 2 Pan, 17.7 m
Radar Cross Section
36.964 m²

Expand to show TLE details & history
Last TLE update: 18 hours ago

TLE from 18 hours ago
0 STARLINK-35571
1 66089U 25236D   26094.92999777  .00025789  00000-0  88139-3 0  9990
2 66089  53.1593 341.8820 0000894  71.6156 288.4942 15.30141972 26963
Epoch: 2026-04-04T22:19Z
TLE epoch observation values (Epoch: 2026-04-04T22:19:11.807Z)
Latitude
-0°
Longitude
173.84009°
Altitude
476.094 km
Speed
7.629 km/s
True Right ascension
22h 47m 31s
True Declination
0° 00' 00"
Sunlit
Object was in daylight at epoch
Visualization orbit readout
Latitude
Unknown
Longitude
Unknown
Altitude
Unknown
Speed
Unknown
Apparent Right ascension
Unknown
Apparent Declination
Unknown
Sunlit
N/A
Visualization observer readout
Local Sidereal Time
21:53:45
Azimuth
Unknown
Elevation
Unknown
Doppler factor
Unknown
Orbital elements
Apogee altitude
476.258 km
Perigee altitude
475.032 km
Semi-major axis
6,853.782 km
Eccentricity
0.00009
Inclination
53.1593°
RAAN
341.882°
Arg. of periapsis
71.6156°
True anomaly
288.48448°
Mean anomaly
288.4942°
Eccentric anomaly
288.48934°
Mean motion
3.82514 °/min
Orbital period
94.11 mins
BSTAR
0.00088139
Loading maneuver chart data...
Computing Atmospheric mass density...
Loading historical data...
Loading historical data...
Loading historical data...
Loading historical data...
Loading historical data...
Loading historical data...
Loading historical data...

Documentation

Showing up to 5 results
|